Location: Oberkirch
(48.5323°N, 8.0787°E)
Time: 17:24:08
(UTC+00:00)

Cosmos 1459 Rocket - Pass Details

Date: 08 November 2025
Orbit: 936 x 997 km, 83.0° (Epoch: 09 December)

Event Time Altitude Azimuth Distance (km) Brightness Sun altitude
Rises 04:44:43 0° 346° (NNW) 3,731 6.8 -16.8°
Reaches altitude 10° 04:47:21 10° 340° (NNW) 2,778 6.1 -16.3°
Maximum altitude 04:53:19 44° 271° (W) 1,355 4.3 -15.3°
Drops below altitude 10° 04:59:14 10° 202° (SSW) 2,746 6.2 -14.4°
Sets 05:01:51 0° 196° (SSW) 3,684 7.0 -14.0°
